Location: Bh?mavarapp?du
(16.7041°N, 80.6518°E)
Time: 05:59:52
(UTC+00:00)

Delta 168 - Pass Details

Date: 21 April 2021
Orbit: 394 x 2046 km, 25.3° (Epoch: 05 May)

Event Time Altitude Azimuth Distance (km) Brightness Sun altitude
Exits shadow 23:18:59 - 294° (WNW) 3,364 6.4 -14.4°
Reaches altitude 10° 23:19:46 10° 295° (WNW) 3,087 6.2 -14.2°
Maximum altitude 23:26:53 52° 10° (N) 1,033 4.3 -12.5°
Drops below altitude 10° 23:31:34 10° 88° (E) 2,047 7.1 -11.5°
Sets 23:33:33 0° 93° (E) 2,787 7.9 -11.0°
